Regional Weather Roundup
Issued by NWS

Home | Current Version | Previous Version | Graphics & Text | Print | Product List | Glossary Off
Versions: 1 2 3 4 5 6 7 8 9 10 11 12 13 14 15 16 17 18 19 20 21 22 23 24 25 26 27 28 29 30 31 32 33 34 35 36 37 38 39 40 41 42 43 44 45 46 47 48 49 50

000
ASUS43 KMKX 231800
RWRWI

WISCONSIN REGIONAL WEATHER ROUNDUP
NATIONAL WEATHER SERVICE MILWAUKEE/SULLIVAN WI
100 PM CDT TUE SEP 23 2014

NOTE: "FAIR" INDICATES FEW OR NO CLOUDS BELOW 12,000 FEET WITH NO
SIGNIFICANT WEATHER AND/OR OBSTRUCTIONS TO VISIBILITY.

WIZ001-002-006>008-014>016-023>028-231900-
NORTHWEST WISCONSIN

CITY           SKY/WX    TMP DP  RH WIND       PRES   REMARKS
SUPERIOR ARPT  SUNNY     73  54  51 SW14      30.19F
ASHLAND        SUNNY     74  53  48 SW10      30.22F
6HR MIN TEMP:  43; 6HR MAX TEMP:  74;

HAYWARD        SUNNY     71  50  47 S9        30.24F
6HR MIN TEMP:  40; 6HR MAX TEMP:  71;

SIREN          SUNNY     71  50  46 S12G17    30.23S
CUMBERLAND     CLEAR     70  48  46 S12       30.25S
RICE LAKE      SUNNY     70  51  50 S12       30.26S
6HR MIN TEMP:  43; 6HR MAX TEMP:  70;

CHETEK         CLEAR     70  54  56 S8        30.26S
LADYSMITH      SUNNY     71  52  50 S7        30.28S
EAU CLAIRE     NOT AVBL
MENOMONIE      CLEAR     72  53  50 S9        30.25F
NEW RICHMOND   MOSUNNY   72  47  41 S14G20    30.23F
OSCEOLA        MOSUNNY   71  51  48 S9        30.25S
$$

WIZ003>005-009-010-017-018-231900-
NORTH CENTRAL WISCONSIN

CITY           SKY/WX    TMP DP  RH WIND       PRES   REMARKS
MANITOWISH WTR CLEAR     69  51  52 SW9       30.26F
ARBOR VITAE    SUNNY     72  53  50 SW8       30.27S
WOODRUFF       SUNNY     72  53  50 SW8       30.27S
RHINELANDER    SUNNY     70  50  49 W7        30.29S
6HR MIN TEMP:  39; 6HR MAX TEMP:  70;

EAGLE RIVER    SUNNY     70  48  46 SW5       30.27S
LAND O LAKES   SUNNY     71  51  47 S7        30.27S
PHILLIPS       SUNNY     70  51  50 S7        30.26S
6HR MIN TEMP:  40; 6HR MAX TEMP:  70;

TOMAHAWK       SUNNY     70  49  46 CALM      30.28S
MEDFORD        SUNNY     69  49  48 SW8       30.28F
MERRILL        SUNNY     70  51  49 SW7       30.28S
$$

WIZ029-030-035-036-043>047-231900-
CENTRAL WISCONSIN

CITY           SKY/WX    TMP DP  RH WIND       PRES   REMARKS
WAUSAU         SUNNY     71  49  45 S9        30.27F
6HR MIN TEMP:  44; 6HR MAX TEMP:  71;

MOSINEE        SUNNY     70  52  52 W6        30.30S
MARSHFIELD     SUNNY     72  51  47 SW8       30.28F
6HR MIN TEMP:  44; 6HR MAX TEMP:  72;

STEVENS POINT  SUNNY     69  48  47 W6        30.30S
WAUPACA        SUNNY     74  51  44 S3        30.30S
WAUTOMA        NOT AVBL
WISC RAPIDS    SUNNY     71  51  49 VRB5      30.30F
6HR MIN TEMP:  41; 6HR MAX TEMP:  72;

CAMP DOUGLAS   NOT AVBL
$$

WIZ011>013-019>022-031-037>040-048>050-231900-
NORTHEAST WISCONSIN

CITY           SKY/WX    TMP DP  RH WIND       PRES   REMARKS
ANTIGO         SUNNY     69  52  54 SW8       30.29S
SHAWANO        CLEAR     73  52  46 SW5       30.29S
6HR MIN TEMP:  47; 6HR MAX TEMP:  73;

OCONTO         CLEAR     72  55  55 SW5       30.27S
STURGEON BAY   SUNNY     70  54  56 SW8       30.29S
6HR MIN TEMP:  52; 6HR MAX TEMP:  70;

GREEN BAY      SUNNY     72  54  53 VRB6      30.29S
6HR MIN TEMP:  45; 6HR MAX TEMP:  72;

MANITOWOC      NOT AVBL
APPLETON       SUNNY     70  48  46 SW7       30.30F
CLINTONVILLE   SUNNY     72  52  49 SW7       30.28S
OSHKOSH        SUNNY     72  51  47 SW7       30.30S
6HR MIN TEMP:  46; 6HR MAX TEMP:  72;

$$

WIZ032>034-041-042-053>061-231900-
SOUTHWEST WISCONSIN

CITY           SKY/WX    TMP DP  RH WIND       PRES   REMARKS
LA CROSSE      MOSUNNY   73  50  44 S9        30.27F
6HR MIN TEMP:  50; 6HR MAX TEMP:  74;

SPARTA         SUNNY     71  49  46 SW9       30.29F
VIROQUA        PTCLDY    70  50  50 SW8       30.30F
BOSCOBEL       SUNNY     73  49  42 SW10      30.30F
6HR MIN TEMP:  47; 6HR MAX TEMP:  73;

PRAIRIE DU CHI SUNNY     70  49  47 SE6       30.29F
PLATTEVILLE    SUNNY     70  48  45 S9        30.33S
$$

WIZ056-057-062-063-064-067-068-231900-
SOUTH CENTRAL WISCONSIN

CITY           SKY/WX    TMP DP  RH WIND       PRES   REMARKS
REEDSBURG      CLEAR     69  52  54 S6        30.30F
BARABOO/DELLS  SUNNY     72  46  40 SW7       30.31S
LONE ROCK      NOT AVBL
MINERAL POINT  SUNNY     72  46  40 SW8       30.32F
MADISON        MOSUNNY   71  49  45 S7        30.32S
6HR MIN TEMP:  45; 6HR MAX TEMP:  72;

MIDDLETON      CLEAR     73  45  36 SW7       30.32S
WATERTOWN      SUNNY     71  51  48 S9        30.32S
MONROE         SUNNY     70  48  46 S10       30.33S
JANESVILLE     SUNNY     72  46  40 S5        30.32F
$$

WIZ051-052-058>065-066-070>072-231900-
SOUTHEAST WISCONSIN

CITY           SKY/WX    TMP DP  RH WIND       PRES   REMARKS
MILWAUKEE      MOSUNNY   72  49  44 W7        30.32S
6HR MIN TEMP:  54; 6HR MAX TEMP:  72;

WAUKESHA       SUNNY     70  48  46 W7        30.33F
MILWAUKEE/TIMM SUNNY     72  46  40 W8        30.33S
RACINE         SUNNY     72  51  47 SW5       30.34S
6HR MIN TEMP:  51; 6HR MAX TEMP:  72;

BURLINGTON     SUNNY     70  45  41 W7        30.33F
KENOSHA        SUNNY     71  51  49 SW6       30.33F
6HR MIN TEMP:  47; 6HR MAX TEMP:  72;

FOND DU LAC    SUNNY     71  50  47 S6        30.30F
6HR MIN TEMP:  45; 6HR MAX TEMP:  72;

SHEBOYGAN      SUNNY     73  51  46 W8        30.30S
6HR MIN TEMP:  43; 6HR MAX TEMP:  73;

WEST BEND      SUNNY     72  46  40 SW8       30.31S
JUNEAU         SUNNY     70  52  53 S5        30.33R
$$

LSZ147-162-231900-
LAKE SUPERIOR

STATION/POSITION TIME  TEMP    WIND        PRES    WAVE
                       AIR SEA DIR/SP/G            HT/PER
                 (UTC) (F)     (DEG/KT/KT) (MB)    (FT/S)
W MID LAKE BUOY  1650   51 49  220/  8/ 10 1023.4S   1/ 3
DEVILS ISLAND    1700   59     250/  5/  7 1023.5F
PORT WING        1700   60      20/  3/  4 1023.4S
SAXON HARBOR     1700   73     230/  4/  7 1023.4F
$$

LMZ867-665-643>646-231900-
LAKE MICHIGAN

STATION/POSITION TIME  TEMP    WIND        PRES    WAVE
                       AIR SEA DIR/SP/G            HT/PER
                 (UTC) (F)     (DEG/KT/KT) (MB)    (FT/S)
CHAMBERS ISLAND  1700   63     180/  7/ 12 1025.1S
S GREEN BAY BUOY 1730   61                 1026.3R
N MID LAKE BUOY  1650   58 57  200/  8/ 10 1025.2R   1/ 4
NORTHPORT PIER   1700   65     120/  2/  3 1024.7S
SISTER BAY       1712          300/  9/  9   N/A
KEWAUNEE LAKESHO 1700   58     150/  7/  8 1024.7R
SHEBOYGAN LAKESH 1700   55 51  160/ 12/ 12 1026.6S
PORT WASHINGTON  1700   64     180/  6/  9 1026.8
ATWATER BUOY     1700   62     120/  6/  6 1027.6
S MID LAKE BUOY  1650   61 61  230/  8/ 10 1027.6S   2/ 4
KENOSHA   LAKESH 1700   68     270/  7/  9 1026.8S
$$

TC  - TEMPERATURE IN CELSIUS
VSB - VISIBILITY IN STATUTE MILES
WCI - WIND CHILL INDEX
HX  - HEAT INDEX



USA.gov is the U.S. government's official web portal to all federal, state and local government web resources and services.